Hourly Data Report for August 07, 2021

CAMPBELL RIVER A
BRITISH COLUMBIA
Current Station Operator: NAVCAN

49°57'07.000" N
125°16'23.000" W
108.80 m
1021270
YBL

Download Data

Hourly Data (August 2021)
Hourly Data Report for August 7, 2021
TIME
LST
Temp Definition
°C
Dew Point Definition
°C
Rel Hum Definition
%
Precip. Amount Definition
mm

Wind Dir Definition
10's deg

Wind Spd Definition
km/h
Visibility Definition
km
Stn Press Definition
kPa
Hmdx Definition


Wind Chill Definition


Weather Definition


00:00 13.9 13.6 98 LegendMM 22 5 LegendMM 100.13     LegendNANA
01:00 14.0 13.8 98 LegendMM 33 4 LegendMM 100.07     LegendNANA
02:00 14.0 13.8 99 LegendMM 31 3 LegendMM 100.04     LegendNANA
03:00 14.0 13.8 99 LegendMM 27 3 LegendMM 100.00     LegendNANA
04:00 13.9 13.7 99 LegendMM 31 4 LegendMM 99.93     LegendNANA
05:00 13.3 13.2 99 LegendMM 28 3 LegendMM 99.92     LegendNANA
06:00 13.4 13.3 99 LegendMM 27 5 LegendMM 99.90     LegendNANA
07:00 14.5 14.3 99 LegendMM 34 5 LegendMM 99.90     LegendNANA
08:00 15.1 14.3 95 LegendMM 5 3 LegendMM 99.87     LegendNANA
09:00 16.0 14.3 90 LegendMM 6 5 LegendMM 99.85     LegendNANA
10:00 16.9 14.4 85 LegendMM 7 7 LegendMM 99.85     LegendNANA
11:00 17.5 14.4 82 LegendMM 10 10 LegendMM 99.84     LegendNANA
12:00 18.2 14.8 80 LegendMM 12 16 LegendMM 99.78     LegendNANA
13:00 18.6 15.5 82 LegendMM 10 22 LegendMM 99.75     LegendNANA
14:00 17.9 15.4 86 LegendMM 11 16 LegendMM 99.76     LegendNANA
15:00 17.6 16.1 91 LegendMM 15 11 LegendMM 99.74     LegendNANA
16:00 14.5 13.4 93 LegendMM 34 7 LegendMM 99.72     LegendNANA
17:00 15.8 15.1 96 LegendMM 28 5 LegendMM 99.79     LegendNANA
18:00 14.7 12.9 89 LegendMM 30 14 LegendMM 99.85     LegendNANA
19:00 13.9 12.6 92 LegendMM 28 5 LegendMM 99.85     LegendNANA
20:00 13.7 12.8 95 LegendMM 30 12 LegendMM 99.82     LegendNANA
21:00 13.5 12.8 95 LegendMM 30 11 LegendMM 99.90     LegendNANA
22:00 13.1 11.7 91 LegendMM 31 12 LegendMM 99.92     LegendNANA
23:00 12.7 11.1 90 LegendMM 30 13 LegendMM 99.90     LegendNANA

Notes on Data Quality.

Legend

  • E = Estimated
  • M = Missing
  • NA = Not Available*
  • [empty] = Indicates an unobserved value
Date modified: